Regional Weather Roundup
Issued by NWS

Home | Current Version | Previous Version | Text Only | Print | Product List | Glossary On
Versions: 1 2 3 4 5 6 7 8 9 10 11 12 13 14 15 16 17 18 19 20 21 22 23 24 25 26 27 28 29 30 31 32 33 34 35 36 37 38 39 40 41 42 43 44 45 46 47 48 49 50
000
ASUS43 KDTX 300910
RWRMI
MICHIGAN HOURLY REGIONAL WEATHER ROUNDUP
NATIONAL WEATHER SERVICE DETROIT/PONTIAC MI
500 AM EDT MON MAY 30 2016

NOTE: "FAIR" INDICATES FEW OR NO CLOUDS BELOW 12,000 FEET WITH NO
SIGNIFICANT WEATHER AND/OR OBSTRUCTION TO VISIBILITY.

MIZ047>049-052>055-059>063-066>070-074>076-081>083-301000-
SOUTHEAST LOWER MICHIGAN

CITY           SKY/WX    TMP DP  RH WIND       PRES   REMARKS
ADRIAN         PTCLDY    60  55  83 CALM      30.00S
ALMA           MOCLDY    60  57  89 W3        29.97R
ANN ARBOR      PTCLDY    54  52  93 SW5       29.98R
BAD AXE        CLEAR     61  57  88 W3        29.94S
CARO           CLEAR     58  55  92 SW3       29.95R
DETROIT CITY   CLEAR     66  56  70 W7        29.97R
DETROIT        PTCLDY    62  56  80 SW6       29.98S
FLINT          CLEAR     64  56  75 W6        29.96S
GROSSE ILE     CLEAR     64  57  77 CALM      29.97R
HILLSDALE      CLEAR     62  54  74 W3        30.01S
HOWELL         CLEAR     60  56  88 SW5       29.98S

CITY           SKY/WX    TMP DP  RH WIND       PRES   REMARKS
JACKSON        PTCLDY    59  56  89 W6        29.99S
LAMBERTVILLE   CLEAR     60  56  89 CALM      30.00S
LANSING        CLEAR     62  56  80 W6        29.98S
LAPEER         FAIR      63  56  78 CALM      29.96S
MASON          CLEAR     62  56  80 CALM      29.99R
MONROE         CLEAR     61  57  88 W5        29.98S
MT. CLEMENS    PTCLDY    64  58  79 SW6       29.95R
PONTIAC        CLEAR     63  57  81 W7        29.97R
PORT HOPE        N/A     64  59  83 W5        29.90S
PORT HURON     FOG       55  55 100 CALM      29.95S VSB 1
TRI CITIES     PTCLDY    63  57  81 W7        29.96R
MIDLAND        MOCLDY    61  58  89 SW3       29.95S
TROY           CLEAR     66  56  71 W6        29.99R
SAGINAW HB     PTCLDY    63  55  77 W9        29.95R
$$
MIZ043>046-050>051-056>058-064>065-071>073-077>080-301000-
SOUTHWEST LOWER MICHIGAN

CITY           SKY/WX    TMP DP  RH WIND       PRES   REMARKS
BATTLE CREEK   PTCLDY    60  56  86 SW6       30.00S
BENTON HARBOR  CLEAR     60  55  83 CALM      29.99S
BIG RAPIDS     CLEAR     60  57  91 W5        29.96F
COLDWATER      CLEAR     59  56  88 SW5       30.01R
FREMONT        FAIR      56  56 100 CALM      29.97S
HOLLAND        CLEAR     62  55  77 CALM      29.99R
GRAND RAPIDS   CLEAR     62  56  80 W6        29.99R
IONIA          FAIR      60  55  81 W7        29.97S
KALAMAZOO      CLEAR     62  55  77 CALM      30.00S
LUDINGTON        N/A     51  51 100 CALM      29.96F FOG
MARSHALL       PTCLDY    61  57  87 CALM      29.99S
MOUNT PLEASANT CLOUDY    63  58  82 W3        29.96R
MUSKEGON       CLEAR     61  54  77 CALM      29.97S
SOUTH HAVEN    CLEAR     60  57  91 CALM      29.99S
$$
MIZ016>042-301000-
NORTHERN LOWER MICHIGAN

CITY           SKY/WX    TMP DP  RH WIND       PRES   REMARKS
ALPENA         PTCLDY    62  58  86 W5        29.89S
BEAVER ISLAND  CLEAR     53  52  98 W8        29.91S
BELLAIRE       CLEAR     60  56  85 SW3       29.93S
CADILLAC       CLEAR     56  54  92 W3        29.96S
CHARLEVOIX     PTCLDY    59  55  87 W12       29.95S
FRANKFORT      PTCLDY    53  53  99 CALM      29.95S
GAYLORD        CLEAR     59  56  89 W9        29.92S
GRAYLING       CLEAR     59  57  93 W5        29.94S
HARBOR SPRINGS PTCLDY    56  54  93 W5        29.91S
HOUGHTON LAKE  CLEAR     61  58  90 NW12      29.95R
OSCODA         CLEAR     60  57  88 W5        29.90S
PELLSTON       CLOUDY    60  55  83 W7        29.90S
ROGERS CITY    PTCLDY    60  56  87 W7        29.88F
TRAVERSE CITY  CLEAR     59  57  93 CALM      29.93R
$$
MIZ007>008-015-301000-
EASTERN UPPER MICHIGAN

CITY           SKY/WX    TMP DP  RH WIND       PRES   REMARKS
KINROSS          N/A     57  57 100 W5        29.86S
MACKINAC ISLAN CLOUDY    57  57 100 W12       29.88R
NEWBERRY       CLOUDY    58  57  94 W10       29.88R
S. S. MARIE    CLOUDY    57  55  93 W10       29.84R
MUNISING         N/A     59  53  80 W8        29.89R
$$
MIZ004>006-011>014-085-301000-
CENTRAL UPPER MICHIGAN

CITY           SKY/WX    TMP DP  RH WIND       PRES   REMARKS
MANISTIQUE     CLEAR     58  56  95 W6        29.89S
ESCANABA       CLEAR     55  54  94 W5        29.92
MENOMINEE      CLEAR     58  55  90 CALM      29.95R
SAWYER-GWINN   CLEAR     52  51  94 W6        29.92S
$$
MIZ001>003-009>011-084-301000-
WESTERN UPPER MICHIGAN

CITY           SKY/WX    TMP DP  RH WIND       PRES   REMARKS
IRON MOUNTAIN  CLEAR     53  51  93 CALM      29.92F
HOUGHTON       CLEAR     54  51  90 W8        29.88S
COPPER HARBOR    N/A     59  53  80 VRB7      29.84S
IRONWOOD       CLEAR     54  52  94 W7        29.92S
$$

ABBREVIATIONS USED IN REMARKS
   TC - TEMPERATURE IN CELSIUS
  WCI - WIND CHILL INDEX
   HX - HEAT INDEX
  VSB - VISIBILITY





USA.gov is the U.S. government's official web portal to all federal, state and local government web resources and services.